[[{"header":{"parameterUnit":"m.s-1","parameterCategory":1,"la1":30.2991,"la2":30.254,"lo1":-89.0895,"lo2":-89.0444,"dy":0.0017,"dx":0.0017,"nx":28,"ny":28,"refTime":"2025-11-28T03:00:00:Z","depth":0,"parameterNumber":2,"parameterNumberName":"U-component_of_WINDS"},"data":[0,0,0,0,0,0,0,0,0,0,0,0,0,0,0,0,0,0,0,0,0,0,0,0,0,0,0,0,0,0,0,0,0,0,0,0,0,0,0,0,0,0,0,0,0,0,0,0,0,0,0,0,0,0,0,0,0,0,0.419,0.419,0,0.4188,0.4188,0.4188,0.4197,0.4197,0.4197,0.4198,0.4196,0.4195,0.4195,0,0,0,0,0,0,0,0,0,0,0,0,0,0.42,0.42,0.419,0.419,0.419,0.4188,0.4188,0.4188,0.4197,0.4197,0.4197,0.4198,0.4196,0.4195,0.4195,0,0,0,0,0,0,0,0,0,0,0,0,0,0.4197,0.42,0.419,0.4194,0.4194,0.4188,0.4188,0.4188,0.4197,0.4197,0.4197,0.4198,0.4196,0.4195,0.4195,0.4185,0,0,0.4194,0.4193,0,0,0,0,0,0,0,0,0.4197,0.4196,0.4193,0.4194,0.4194,0.4193,0.4191,0.4187,0.4197,0.4196,0.4198,0.4198,0.4194,0.4194,0.4193,0.4185,0.4185,0.4194,0.4193,0.4193,0.4193,0,0,0,0,0,0,0,0.4197,0.4197,0.4189,0.4193,0.4194,0.4196,0.4196,0.419,0.4193,0.4196,0.4196,0.4196,0.4195,0.4193,0.4193,0.4185,0.4194,0.4193,0.4193,0.4193,0.4169,0.4169,0,0,0,0,0,0,0.4197,0.4197,0.4189,0.4189,0.4196,0.4195,0.4195,0.4193,0.4193,0.4193,0.4196,0.4197,0.4194,0.4193,0.4193,0.4182,0.4193,0.4193,0.4192,0.4169,0.4169,0.4168,0,0,0,0,0,0,0.4197,0.4196,0.4189,0.4193,0.4192,0.4195,0.4192,0.4193,0.4191,0.4193,0.4194,0.4194,0.4194,0.4194,0.4187,0.4182,0.4193,0.4192,0.417,0.4169,0.4169,0.4158,0,0,0,0,0,0,0.4197,0.4196,0.4192,0.4193,0.4192,0.4183,0.4192,0.4192,0.4191,0.4192,0.4192,0.4192,0.4194,0.4188,0.4187,0.4181,0.4192,0.417,0.4169,0.4169,0.4159,0.4157,0.4156,0,0,0,0,0,0.4198,0.4189,0.4192,0.4191,0.4187,0.4183,0.4182,0.4185,0.419,0.4186,0.4188,0.4192,0.4183,0.4187,0.4186,0.418,0.4171,0.417,0.4169,0.416,0.4158,0.4156,0,0,0,0,0,0,0.4187,0.4189,0.4192,0.4184,0.4183,0.4184,0.4179,0.4183,0.4181,0.4182,0.4186,0.4186,0.4179,0.4179,0.4184,0.4171,0.4177,0.4176,0.4171,0.4169,0.4167,0.4167,0.4191,0,0,0,0,0,0.4184,0.418,0.4182,0.4174,0.4174,0.4177,0.4175,0.4178,0.4177,0.4177,0.4177,0.4177,0.4174,0.4171,0.4169,0.416,0.416,0.4155,0.4154,0.4152,0.4151,0.4147,0.4145,0.4166,0.4166,0.4166,0,0,0.4177,0.4178,0.4175,0.4172,0.4172,0.4168,0.4176,0.4172,0.4169,0.4176,0.417,0.417,0.417,0.4162,0.4159,0.4162,0.4146,0.4151,0.415,0.415,0.4146,0.4144,0.4142,0.4165,0.4165,0.4165,0,0,0.4162,0.4162,0.4156,0.4156,0.4156,0.4158,0.4156,0.4157,0.4158,0.4152,0.4157,0.4154,0.4149,0.4149,0.4148,0.4134,0.4138,0.4133,0.4125,0.4121,0.4119,0.4118,0.4113,0.4111,0.4132,0.4132,0.4132,0,0.4153,0.4147,0.4152,0.4147,0.4146,0.4153,0.4147,0.4146,0.4145,0.4144,0.4148,0.4142,0.4142,0.4135,0.4132,0.4131,0.4129,0.4133,0.4119,0.4118,0.4116,0.4112,0.411,0.4132,0.4132,0.4132,0.4132,0,0.4137,0.4133,0.4128,0.4127,0.4125,0.412,0.4124,0.4122,0.4125,0.4127,0.4121,0.4122,0.412,0.4118,0.4121,0.4112,0.4114,0.4118,0.4125,0.4114,0.411,0.4108,0.4131,0.4131,0.4131,0.4131,0,0,0.4114,0.4117,0.4115,0.4115,0.4116,0.4113,0.4108,0.4106,0.4105,0.4104,0.41,0.4096,0.4101,0.41,0.4103,0.4099,0.4089,0.4104,0.4104,0.4101,0.4079,0.4075,0.4073,0.4092,0.4092,0.4091,0.4079,0,0.4099,0.4091,0.4096,0.4087,0.4084,0.4091,0.4087,0.4087,0.4089,0.4087,0.4089,0.4086,0.4092,0.4092,0.4089,0.4091,0.4084,0.4092,0.4088,0.4088,0.4088,0.4071,0.4067,0.4055,0.4077,0.4077,0.4077,0,0.4081,0.408,0.4071,0.4074,0.4072,0.4069,0.4068,0.4066,0.4066,0.4068,0.4068,0.4072,0.4068,0.4075,0.407,0.4075,0.4074,0.4075,0.4074,0.4074,0.4081,0.4069,0.4051,0.4049,0.4074,0.4074,0.4075,0,0.4065,0.4062,0.4056,0.4056,0.4059,0.4056,0.4057,0.4058,0.4057,0.4057,0.4056,0.4055,0.4054,0.4054,0.4058,0.4063,0.4052,0.4059,0.4054,0.4053,0.405,0.405,0.4031,0.405,0.405,0.405,0.405,0,0.4048,0.4042,0.4049,0.4046,0.404,0.4045,0.4039,0.4041,0.4042,0.404,0.4046,0.4043,0.4049,0.4047,0.4051,0.4046,0.4045,0.4047,0.4048,0.4046,0.4046,0.4045,0.4046,0.405,0.405,0.405,0.405,0,0.4029,0.4033,0.4028,0.4031,0.4032,0.4027,0.403,0.4028,0.4031,0.4027,0.4026,0.4031,0.4029,0.4034,0.4032,0.4035,0.4028,0.403,0.4027,0.4028,0.4022,0.4022,0.4001,0.3998,0.402,0.4019,0.4019,0,0.4017,0.4013,0.4017,0.4015,0.4016,0.4014,0.4013,0.4019,0.4018,0.4019,0.4016,0.4015,0.4014,0.4011,0.4014,0.4014,0.4016,0.4009,0.4016,0.4014,0.4016,0.4016,0.4016,0.4007,0.4006,0.4006,0.4006,0,0.3997,0.3999,0.3998,0.3998,0.3997,0.3997,0.3997,0.3996,0.4002,0.4001,0.3999,0.3999,0.3998,0.3997,0.3997,0.3998,0.4003,0.4004,0.4003,0.4,0.3999,0.4,0.4023,0.4004,0.4004,0.4005,0.4005,0.4005,0.3981,0.3978,0.398,0.3979,0.398,0.398,0.3978,0.3981,0.398,0.398,0.3983,0.3981,0.3983,0.3984,0.3985,0.3983,0.3987,0.3985,0.3984,0.3983,0.3982,0.4,0.3984,0.3984,0.3984,0.3984,0.3984,0,0.396,0.3963,0.3961,0.3962,0.3961,0.3967,0.3968,0.3967,0.3965,0.3966,0.3966,0.3964,0.3963,0.3967,0.3967,0.3965,0.3967,0.3965,0.3965,0.3965,0.3979,0.3981,0.3963,0.3963,0.3963,0.3963,0.3963,0.3963,0.395,0.3945,0.3948,0.3944,0.3946,0.3944,0.3945,0.3945,0.3947,0.3945,0.3944,0.3947,0.395,0.395,0.395,0.3951,0.395,0.3947,0.3949,0.3962,0.3964,0.3966,0.3967,0.3947,0.3947,0.3935,0.3935,0.3934]},{"header":{"parameterUnit":"m.s-1","parameterCategory":1,"la1":30.2991,"la2":30.254,"lo1":-89.0895,"lo2":-89.0444,"dy":0.0017,"dx":0.0017,"nx":28,"ny":28,"refTime":"2025-11-28T03:00:00:Z","depth":0,"parameterNumber":3,"parameterNumberName":"V-component_of_WINDS"},"data":[0,0,0,0,0,0,0,0,0,0,0,0,0,0,0,0,0,0,0,0,0,0,0,0,0,0,0,0,0,0,0,0,0,0,0,0,0,0,0,0,0,0,0,0,0,0,0,0,0,0,0,0,0,0,0,0,0,0,-6.0451,-6.0452,0,-6.0553,-6.0554,-6.0555,-6.0524,-6.0522,-6.052,-6.0518,-6.0617,-6.0621,-6.0626,0,0,0,0,0,0,0,0,0,0,0,0,0,-6.0225,-6.023,-6.0451,-6.0452,-6.0454,-6.0553,-6.0554,-6.0556,-6.0525,-6.0522,-6.052,-6.0517,-6.0615,-6.0621,-6.0626,0,0,0,0,0,0,0,0,0,0,0,0,0,-6.0325,-6.0231,-6.0451,-6.045,-6.0451,-6.0553,-6.0554,-6.0556,-6.0525,-6.0522,-6.0519,-6.0516,-6.0614,-6.062,-6.0627,-6.0734,0,0,-6.0648,-6.0651,0,0,0,0,0,0,0,0,-6.0319,-6.0333,-6.0449,-6.045,-6.0452,-6.0523,-6.0511,-6.0615,-6.0526,-6.0497,-6.0518,-6.0514,-6.0588,-6.0597,-6.0623,-6.0738,-6.0742,-6.0649,-6.0653,-6.0656,-6.0658,0,0,0,0,0,0,0,-6.0312,-6.0329,-6.0491,-6.0451,-6.0452,-6.0444,-6.0454,-6.0531,-6.0559,-6.0499,-6.0497,-6.051,-6.0588,-6.0616,-6.0625,-6.0744,-6.0649,-6.0655,-6.0659,-6.0662,-6.0953,-6.0957,0,0,0,0,0,0,-6.0305,-6.0323,-6.0488,-6.0494,-6.0376,-6.045,-6.0462,-6.0503,-6.0558,-6.0563,-6.0513,-6.0508,-6.0606,-6.0617,-6.0628,-6.0757,-6.0656,-6.0662,-6.0666,-6.095,-6.0954,-6.0958,0,0,0,0,0,0,-6.0301,-6.032,-6.0484,-6.0408,-6.0428,-6.0458,-6.0504,-6.0507,-6.0535,-6.0568,-6.0572,-6.0537,-6.0604,-6.0618,-6.0708,-6.076,-6.0666,-6.0672,-6.0946,-6.0951,-6.0956,-6.1016,0,0,0,0,0,0,-6.0294,-6.0319,-6.036,-6.0409,-6.0433,-6.0564,-6.0507,-6.0511,-6.0548,-6.0543,-6.0592,-6.0597,-6.0602,-6.0698,-6.0715,-6.0768,-6.0677,-6.0941,-6.0948,-6.0955,-6.101,-6.1023,-6.1034,0,0,0,0,0,-6.0286,-6.0371,-6.0362,-6.0383,-6.0485,-6.0567,-6.058,-6.0586,-6.0552,-6.0593,-6.0615,-6.0595,-6.0752,-6.0708,-6.0727,-6.0782,-6.0938,-6.0946,-6.0954,-6.1004,-6.102,-6.1034,0,0,0,0,0,0,-6.0325,-6.0378,-6.0368,-6.0472,-6.0516,-6.0561,-6.0614,-6.0603,-6.0655,-6.0648,-6.0652,-6.0664,-6.0756,-6.0778,-6.0728,-6.0889,-6.084,-6.0852,-6.0871,-6.0887,-6.0899,-6.0892,-6.0683,0,0,0,0,0,-6.0346,-6.0409,-6.0451,-6.0539,-6.0561,-6.0584,-6.062,-6.0621,-6.0665,-6.0683,-6.0711,-6.0753,-6.0812,-6.0851,-6.0907,-6.1013,-6.1023,-6.1061,-6.1073,-6.1083,-6.1093,-6.1153,-6.117,-6.0985,-6.0985,-6.0985,0,0,-6.0389,-6.0426,-6.0465,-6.0548,-6.0581,-6.0646,-6.06,-6.0669,-6.0717,-6.0693,-6.0781,-6.0803,-6.085,-6.095,-6.0994,-6.097,-6.1147,-6.1093,-6.1101,-6.1106,-6.1163,-6.118,-6.1196,-6.099,-6.0989,-6.0988,0,0,-6.0501,-6.0535,-6.0613,-6.0648,-6.0701,-6.0716,-6.0735,-6.0783,-6.0798,-6.0887,-6.0871,-6.0927,-6.1028,-6.1063,-6.1094,-6.1222,-6.1206,-6.124,-6.1304,-6.1362,-6.1377,-6.1389,-6.1436,-6.1452,-6.125,-6.1251,-6.1251,0,-6.0547,-6.0646,-6.0653,-6.0726,-6.0763,-6.0747,-6.0825,-6.0859,-6.0926,-6.0952,-6.0924,-6.1053,-6.1083,-6.1191,-6.1223,-6.1249,-6.127,-6.1234,-6.1374,-6.1387,-6.1399,-6.1444,-6.1461,-6.1254,-6.1254,-6.1254,-6.1253,0,-6.0701,-6.0769,-6.0825,-6.0894,-6.0937,-6.1012,-6.103,-6.1073,-6.1072,-6.1089,-6.118,-6.1217,-6.1281,-6.1306,-6.1304,-6.1415,-6.1398,-6.1373,-6.1323,-6.1421,-6.1463,-6.148,-6.126,-6.1259,-6.1257,-6.1257,0,0,-6.0838,-6.0912,-6.0933,-6.0965,-6.1023,-6.1075,-6.115,-6.1215,-6.1252,-6.1299,-6.1361,-6.1449,-6.1426,-6.1462,-6.1463,-6.1514,-6.1615,-6.1482,-6.1483,-6.1506,-6.1739,-6.1759,-6.1778,-6.1605,-6.1608,-6.161,-6.1736,0,-6.0955,-6.1088,-6.1099,-6.1218,-6.1282,-6.1269,-6.1333,-6.1376,-6.1395,-6.1451,-6.147,-6.1533,-6.1498,-6.152,-6.1569,-6.1592,-6.1662,-6.1583,-6.1662,-6.1665,-6.1651,-6.18,-6.182,-6.1936,-6.1752,-6.1755,-6.1757,0,-6.1109,-6.1165,-6.1292,-6.1343,-6.137,-6.1428,-6.149,-6.1544,-6.1591,-6.1602,-6.1643,-6.1639,-6.1714,-6.1663,-6.1767,-6.1714,-6.1746,-6.1763,-6.1767,-6.1775,-6.1716,-6.1812,-6.1974,-6.1991,-6.1782,-6.178,-6.1778,0,-6.1198,-6.1304,-6.1394,-6.1422,-6.1483,-6.1525,-6.1552,-6.1597,-6.1637,-6.169,-6.1715,-6.1776,-6.1809,-6.1855,-6.1867,-6.1828,-6.1972,-6.1921,-6.1982,-6.1982,-6.2012,-6.201,-6.2182,-6.2033,-6.2033,-6.2032,-6.2032,0,-6.1328,-6.1406,-6.1435,-6.149,-6.1578,-6.1589,-6.1674,-6.1699,-6.174,-6.1799,-6.179,-6.1846,-6.1858,-6.1916,-6.1925,-6.2011,-6.2025,-6.2035,-6.2037,-6.2036,-6.2035,-6.2058,-6.205,-6.2037,-6.2036,-6.2035,-6.2034,0,-6.1441,-6.1464,-6.1561,-6.1613,-6.1628,-6.169,-6.1734,-6.1787,-6.1806,-6.1881,-6.1899,-6.1928,-6.1996,-6.2013,-6.2093,-6.2099,-6.2201,-6.2194,-6.2185,-6.2185,-6.2246,-6.224,-6.2438,-6.2465,-6.2298,-6.23,-6.2301,0,-6.1523,-6.1583,-6.1643,-6.1683,-6.1713,-6.1778,-6.1819,-6.1832,-6.1875,-6.1935,-6.1981,-6.2048,-6.2103,-6.2212,-6.2239,-6.23,-6.2296,-6.2361,-6.2304,-6.2303,-6.2297,-6.2294,-6.23,-6.2371,-6.2373,-6.2375,-6.2376,0,-6.1666,-6.1675,-6.1735,-6.18,-6.185,-6.1901,-6.195,-6.1983,-6.2003,-6.2051,-6.2122,-6.2165,-6.2248,-6.2315,-6.2378,-6.2404,-6.2394,-6.2394,-6.2411,-6.2411,-6.2404,-6.2409,-6.2215,-6.2389,-6.2387,-6.2386,-6.2386,-6.2385,-6.1766,-6.182,-6.1871,-6.1939,-6.1978,-6.2024,-6.2078,-6.2105,-6.2164,-6.2235,-6.2239,-6.2316,-6.2363,-6.2447,-6.2477,-6.2537,-6.2517,-6.2542,-6.2548,-6.2554,-6.256,-6.2395,-6.2548,-6.2548,-6.2547,-6.2547,-6.2547,0,-6.1909,-6.1942,-6.2004,-6.2075,-6.2129,-6.2117,-6.2171,-6.2216,-6.2285,-6.2331,-6.2386,-6.2468,-6.2533,-6.2567,-6.2632,-6.2673,-6.267,-6.269,-6.2687,-6.2693,-6.2574,-6.2553,-6.2691,-6.2691,-6.2691,-6.2691,-6.2691,-6.2691,-6.1989,-6.208,-6.2096,-6.2206,-6.2238,-6.2316,-6.2348,-6.2391,-6.2428,-6.2521,-6.2576,-6.2599,-6.264,-6.2708,-6.2768,-6.2776,-6.28,-6.2823,-6.2828,-6.2716,-6.2701,-6.2687,-6.2667,-6.2828,-6.2828,-6.2943,-6.2944,-6.2945]}]]